Location: Altenst�hlen
(53.5567°N, 8.9425°E)
Time: 08:41:26
(UTC+00:00)

STARLINK-50 - Pass Details

Date: 23 October 2019
Orbit: 548 x 551 km, 53.0° (Epoch: 19 November)

Event Time Altitude Azimuth Distance (km) Brightness Sun altitude
Rises 18:20:07 0° 281° (W) 2,721 8.8 -19.8°
Reaches altitude 10° 18:22:22 10° 278° (W) 1,826 7.5 -20.2°
Maximum altitude 18:26:28 65° 197° (SSW) 610 3.8 -20.8°
Enters shadow 18:27:07 55° 150° (SSE) 666 3.7 -20.8°
